Weather History for KMRN - August, 2014

Change the Weather History Date:

Saturday, August 9, 2014

  Actual Average (KHKY) Record (KHKY)
Temperature  
Mean Temperature 70 °F -  
Max Temperature 77 °F 86 °F 104 °F (2007)
Min Temperature 63 °F 66 °F 53 °F (1989)
Cooling Degree Days 5    
Growing Degree Days 20 (Base 50)    
Moisture  
Dew Point 68 °F    
Average Humidity 94    
Maximum Humidity 100    
Minimum Humidity 76    
Precipitation  
Precipitation 0.12 in - - ()
Sea Level Pressure  
Sea Level Pressure 30.13 in    
Wind  
Wind Speed 2 mph (NNE)    
Max Wind Speed 9 mph    
Max Gust Speed -    
Visibility 6 miles    
Events Rain    
Averages and records for this station are not official NWS values.
T = Trace of Precipitation, MM = Missing Value Source: NWS Daily Summary

Daily Weather History Graph

Daily Weather History Graph

Search for Another Location

Airport or City:

Trip Planner

Search our weather history database for the weather conditions in past years. The results will help you decide how hot, cold, wet, or windy it might be!

Date:

Astronomy

Aug. 09, 2014 Rise Set
Actual Time 6:40 AM EDT 8:22 PM EDT
Civil Twilight 6:12 AM EDT 8:50 PM EDT
Nautical Twilight 5:39 AM EDT 9:23 PM EDT
Astronomical Twilight 5:04 AM EDT 9:58 PM EDT
Moon 7:24 PM EDT (8/9) 5:19 AM EDT (8/9)
Length of Visible Light 14h 37m
Length of Day
13h 42m
Waxing Gibbous, 98% of the Moon is Illuminated
Aug 9
Waxing Gibbous
Aug 10
Full
Aug 17
Last Quarter
Aug 25
New
Sep 2
First Quarter

Hourly Weather History & Observations

Time (EDT) Temp. Dew Point Humidity Pressure Visibility Wind Dir Wind Speed Gust Speed Precip Events Conditions
12:15 AM 69.1 °F 69.1 °F 100% 30.15 in 2.0 mi Calm Calm - N/A   Overcast
1:15 AM 68.9 °F 68.9 °F 100% 30.14 in 2.5 mi North 3.5 mph - N/A   Overcast
1:35 AM 68.5 °F 68.5 °F 100% 30.14 in 2.5 mi Calm Calm - N/A   Overcast
1:55 AM 68.5 °F 68.5 °F 100% 30.12 in 3.0 mi Calm Calm - N/A   Overcast
2:15 AM 68.9 °F 68.9 °F 100% 30.12 in 3.0 mi Calm Calm - N/A   Overcast
2:35 AM 68.7 °F 68.7 °F 100% 30.12 in 2.5 mi Calm Calm - N/A   Overcast
2:55 AM 68.5 °F 68.5 °F 100% 30.12 in 2.0 mi North 4.6 mph - N/A   Overcast
3:15 AM 68.4 °F 68.4 °F 100% 30.11 in 1.8 mi Calm Calm - N/A Rain Light Rain
3:35 AM 68.4 °F 68.4 °F 100% 30.11 in 2.0 mi North 4.6 mph - N/A   Overcast
3:55 AM 68.2 °F 68.2 °F 100% 30.11 in 2.0 mi Calm Calm - N/A   Light Drizzle
4:15 AM 68.2 °F 68.2 °F 100% 30.12 in 2.5 mi Calm Calm - N/A   Overcast
4:35 AM 68.0 °F 68.0 °F 100% 30.12 in 2.5 mi Calm Calm - N/A   Overcast
4:55 AM 68.0 °F 68.0 °F 100% 30.12 in 2.5 mi Calm Calm - N/A   Overcast
5:15 AM 68.0 °F 68.0 °F 100% 30.11 in 2.0 mi North 3.5 mph - N/A   Overcast
5:35 AM 68.0 °F 68.0 °F 100% 30.12 in 1.8 mi Calm Calm - N/A   Overcast
5:55 AM 68.0 °F 68.0 °F 100% 30.12 in 1.8 mi Calm Calm - N/A   Overcast
6:15 AM 67.8 °F 67.8 °F 100% 30.13 in 1.2 mi Calm Calm - N/A Rain Light Rain
6:55 AM 67.6 °F 67.6 °F 100% 30.13 in 2.0 mi Calm Calm - 0.12 in Rain Rain
7:15 AM 68.0 °F 68.0 °F 100% 30.13 in 2.0 mi Calm Calm - N/A Rain Rain
7:35 AM 68.0 °F 68.0 °F 100% 30.13 in 2.0 mi Calm Calm - N/A   Overcast
7:55 AM 68.2 °F 68.2 °F 100% 30.14 in 1.8 mi Calm Calm - N/A   Overcast
8:15 AM 68.2 °F 68.2 °F 100% 30.14 in 1.2 mi Calm Calm - N/A   Overcast
8:35 AM 68.2 °F 68.2 °F 100% 30.13 in 1.2 mi Calm Calm - N/A   Overcast
8:55 AM 68.4 °F 68.4 °F 100% 30.14 in 0.8 mi Calm Calm - N/A   Overcast
9:15 AM 68.4 °F 68.4 °F 100% 30.14 in 0.8 mi Calm Calm - N/A   Overcast
9:35 AM 68.7 °F 68.7 °F 100% 30.14 in 1.0 mi Calm Calm - N/A   Overcast
10:15 AM 69.6 °F 69.6 °F 100% 30.14 in 2.5 mi Calm Calm - N/A   Overcast
10:35 AM 70.2 °F 70.2 °F 100% 30.15 in 5.0 mi Calm Calm - N/A   Overcast
10:55 AM 71.6 °F 70.0 °F 95% 30.15 in 7.0 mi Calm Calm - N/A   Mostly Cloudy
11:15 AM 72.7 °F 69.4 °F 90% 30.16 in 10.0 mi Calm Calm - N/A   Overcast
11:35 AM 73.2 °F 69.8 °F 89% 30.16 in 10.0 mi Calm Calm - N/A   Overcast
11:55 AM 73.0 °F 69.6 °F 89% 30.16 in 10.0 mi NNE 3.5 mph - N/A   Overcast
12:15 PM 74.1 °F 69.1 °F 84% 30.15 in 10.0 mi Calm Calm - N/A   Mostly Cloudy
12:35 PM 74.7 °F 68.2 °F 80% 30.15 in 10.0 mi Calm Calm - N/A   Overcast
12:55 PM 75.0 °F 69.3 °F 82% 30.14 in 10.0 mi Calm Calm - N/A   Overcast
1:15 PM 74.3 °F 69.1 °F 84% 30.14 in 10.0 mi North 3.5 mph - N/A   Overcast
1:35 PM 75.4 °F 69.1 °F 81% 30.13 in 10.0 mi NNE 5.8 mph - N/A   Overcast
1:55 PM 74.7 °F 69.1 °F 83% 30.13 in 10.0 mi North 4.6 mph - N/A   Overcast
2:15 PM 76.6 °F 69.6 °F 79% 30.12 in 10.0 mi North 4.6 mph - N/A   Overcast
2:35 PM 77.4 °F 69.3 °F 76% 30.12 in 10.0 mi NNE 3.5 mph - N/A   Overcast
2:55 PM 74.3 °F 69.1 °F 84% 30.12 in 10.0 mi North 4.6 mph - N/A   Overcast
3:15 PM 74.1 °F 68.9 °F 84% 30.12 in 10.0 mi North 6.9 mph - N/A   Overcast
3:35 PM 74.7 °F 69.1 °F 83% 30.10 in 10.0 mi NE 6.9 mph - N/A   Overcast
3:55 PM 76.1 °F 69.3 °F 79% 30.09 in 10.0 mi North 8.1 mph - N/A   Overcast
4:15 PM 75.2 °F 69.1 °F 81% 30.09 in 10.0 mi North 5.8 mph - N/A   Mostly Cloudy
4:55 PM 74.5 °F 68.9 °F 83% 30.08 in 10.0 mi NNE 4.6 mph - N/A   Overcast
5:15 PM 73.4 °F 68.4 °F 84% 30.09 in 10.0 mi NE 6.9 mph - N/A   Overcast
5:35 PM 71.4 °F 68.0 °F 89% 30.09 in 10.0 mi North 6.9 mph - N/A   Overcast
5:55 PM 70.0 °F 67.5 °F 92% 30.10 in 10.0 mi North 9.2 mph - N/A   Overcast
6:15 PM 68.7 °F 67.1 °F 95% 30.10 in 7.0 mi NNE 6.9 mph - N/A   Overcast
6:35 PM 68.2 °F 67.1 °F 96% 30.10 in 10.0 mi NNE 4.6 mph - N/A   Overcast
6:55 PM 68.0 °F 66.7 °F 96% 30.10 in 10.0 mi NNE 4.6 mph - N/A   Overcast
7:15 PM 67.5 °F 66.4 °F 96% 30.12 in 10.0 mi NNE 3.5 mph - N/A   Overcast
7:35 PM 66.6 °F 66.0 °F 98% 30.12 in 7.0 mi NNE 4.6 mph - N/A   Overcast
7:55 PM 66.6 °F 65.8 °F 98% 30.14 in 7.0 mi NNE 3.5 mph - N/A   Overcast
8:15 PM 65.8 °F 65.3 °F 98% 30.14 in 7.0 mi NNE 3.5 mph - N/A   Overcast
8:35 PM 65.5 °F 65.1 °F 99% 30.14 in 5.0 mi North 5.8 mph - N/A   Overcast
8:55 PM 64.8 °F 64.6 °F 99% 30.15 in 5.0 mi NNE 4.6 mph - N/A   Overcast
9:15 PM 64.6 °F 64.4 °F 99% 30.16 in 5.0 mi North 3.5 mph - N/A   Overcast
9:35 PM 64.4 °F 64.2 °F 99% 30.17 in 4.0 mi NNE 4.6 mph - N/A   Overcast
9:55 PM 64.4 °F 64.0 °F 99% 30.17 in 5.0 mi NNE 4.6 mph - N/A   Overcast
10:15 PM 64.2 °F 63.9 °F 99% 30.17 in 5.0 mi NE 5.8 mph - N/A   Drizzle
10:35 PM 64.0 °F 63.9 °F 99% 30.17 in 5.0 mi NNE 4.6 mph - N/A   Drizzle
10:55 PM 63.9 °F 63.7 °F 99% 30.18 in 7.0 mi Calm Calm - N/A   Light Drizzle
11:15 PM 63.7 °F 63.5 °F 99% 30.18 in 7.0 mi NNE 4.6 mph - N/A   Light Drizzle
11:55 PM 63.5 °F 62.8 °F 97% 30.17 in 10.0 mi NNE 4.6 mph - N/A   Light Drizzle